Weather reports worldwide

Advertisment
Gilze-Rijen, Netherlands (6350): temperature & dewpoint: 22.01.2020 07:00:00 - 28.01.2020 07:00:00 (CET)Gilze-Rijen, Netherlands (6350): temperature 5cm: 22.01.2020 07:00:00 - 28.01.2020 07:00:00 (CET)Gilze-Rijen, Netherlands (6350): wind speed & gusts: 22.01.2020 07:00:00 - 28.01.2020 07:00:00 (CET)Gilze-Rijen, Netherlands (6350): wind direction: 22.01.2020 07:00:00 - 28.01.2020 07:00:00 (CET)Gilze-Rijen, Netherlands (6350): reduced air pressure: 22.01.2020 07:00:00 - 28.01.2020 07:00:00 (CET)Gilze-Rijen, Netherlands (6350): visibility: 22.01.2020 07:00:00 - 28.01.2020 07:00:00 (CET)Gilze-Rijen, Netherlands (6350): precipitation: 22.01.2020 07:00:00 - 28.01.2020 07:00:00 (CET)
Date & Time tt [°C] td [°C] tt 5cm [°C] ff [km/h] ff [kn] fx [km/h] fx [kn] dd ppp [hPa] vv [km] rr [mm]
28.01.2020 07:00:00 7,0 4,0 6,1 24 13 - - S 988,5 10 -
28.01.2020 06:00:00 6,5 4,8 5,9 18 10 29 16 S 989,8 10 0,0
28.01.2020 05:00:00 5,7 4,7 5,2 21 11 25 14 S 990,9 10 0,0
28.01.2020 04:00:00 6,0 4,8 5,7 16 9 25 14 SSW 992,3 10 0,0
28.01.2020 03:00:00 5,9 4,8 5,6 15 8 40 21 SW 993,3 10 1,0
28.01.2020 02:00:00 7,0 4,7 6,6 16 9 47 25 SW 993,7 10 0,2
28.01.2020 01:00:00 7,4 5,3 6,7 18 10 43 23 SW 993,5 10 0,0
28.01.2020 00:00:00 7,9 5,3 7,4 26 14 50 27 SW 993,7 10 0,1
27.01.2020 23:00:00 7,9 6,9 7,4 31 17 50 27 S 993,4 10 0,6
27.01.2020 22:00:00 7,6 6,6 7,3 21 11 36 19 S 994,7 7 1,9
27.01.2020 21:00:00 8,0 6,6 7,5 18 10 25 14 SSE 996,3 10 0,0
27.01.2020 20:00:00 7,8 6,4 7,1 16 9 25 14 SSE 998,0 10 0,0
27.01.2020 19:00:00 7,8 6,4 6,9 13 7 25 14 S 999,7 10 0,0
27.01.2020 18:00:00 8,3 7,2 7,9 9 5 22 12 SSW 1000,8 10 0,6
27.01.2020 17:00:00 9,0 6,8 8,6 16 9 25 14 S 1001,9 10 0,1
27.01.2020 16:00:00 9,4 6,8 9,1 16 9 25 14 S 1002,7 10 0,0
27.01.2020 15:00:00 9,7 6,8 9,5 13 7 25 14 SSW 1003,4 10 0,0
27.01.2020 14:00:00 9,7 7,0 9,7 13 7 25 14 SSW 1003,8 10 0,0
27.01.2020 13:00:00 9,7 7,2 9,8 13 7 29 16 SSW 1005,1 10 0,0
27.01.2020 12:00:00 9,5 7,5 9,7 16 9 25 14 SSW 1005,9 10 0,0
27.01.2020 11:00:00 9,1 8,1 9,0 13 7 22 12 SSW 1006,5 10 0,0
27.01.2020 10:00:00 8,4 7,8 8,2 15 8 25 14 S 1006,8 10 0,0
27.01.2020 09:00:00 8,3 7,6 8,0 13 7 22 12 SSW 1007,2 10 0,0
27.01.2020 08:00:00 8,4 7,6 8,0 15 8 25 14 SSW 1007,2 10 0,0
27.01.2020 07:00:00 8,3 7,7 8,0 18 10 32 18 SSW 1007,2 9 0,5
27.01.2020 06:00:00 8,4 7,7 8,1 16 9 32 18 SSW 1007,6 6 0,4
27.01.2020 05:00:00 8,3 7,7 8,0 18 10 29 16 SSW 1008,1 4,5 0,5
27.01.2020 04:00:00 8,1 7,6 7,8 16 9 36 19 SSW 1008,3 3,6 0,5
27.01.2020 03:00:00 7,8 7,1 7,4 22 12 32 18 S 1008,7 5 1,3
27.01.2020 02:00:00 7,6 6,6 7,2 24 13 36 19 S 1009,5 9 1,0
27.01.2020 01:00:00 7,6 5,8 7,2 24 13 36 19 S 1010,0 10 0,1
27.01.2020 00:00:00 7,5 5,2 7,0 22 12 32 18 S 1010,6 10 0,0
26.01.2020 23:00:00 7,7 5,2 7,1 21 11 32 18 S 1011,1 10 0,0
26.01.2020 22:00:00 7,8 5,4 7,4 24 13 36 19 S 1011,9 10 0,0
26.01.2020 21:00:00 7,2 4,9 6,1 15 8 25 14 S 1012,4 10 0,0
26.01.2020 20:00:00 7,9 4,8 7,0 15 8 32 18 SSW 1012,8 10 0,0
26.01.2020 19:00:00 9,3 5,9 8,8 21 11 40 21 SW 1012,8 10 0,0
26.01.2020 18:00:00 9,2 5,9 8,6 13 7 29 16 SSW 1012,8 10 0,0
26.01.2020 17:00:00 8,4 5,8 6,7 11 6 22 12 S 1012,8 10 0,0
26.01.2020 16:00:00 9,6 5,9 9,4 22 12 32 18 S 1013,2 10 0,0
26.01.2020 15:00:00 10,2 6,4 10,5 15 8 25 14 S 1013,5 10 0,0
26.01.2020 14:00:00 9,9 6,4 10,4 18 10 25 14 S 1014,0 10 0,0
26.01.2020 13:00:00 8,8 5,7 9,5 16 9 25 14 SSW 1014,7 10 0,0
26.01.2020 12:00:00 8,0 5,4 8,5 15 8 22 12 S 1015,4 10 0,0
26.01.2020 11:00:00 6,1 4,8 6,0 13 7 18 10 S 1016,0 8 0,0
26.01.2020 10:00:00 4,3 3,7 3,9 11 6 18 10 S 1016,0 7 0,0
26.01.2020 09:00:00 3,4 3,0 3,0 8 4 18 10 SSE 1015,9 8 0,0
26.01.2020 08:00:00 2,5 2,4 2,2 9 5 14 8 SSE 1015,9 6 0,0
26.01.2020 07:00:00 2,3 2,2 2,1 9 5 14 8 SE 1015,9 5 0,0
26.01.2020 06:00:00 2,1 2,1 2,0 9 5 14 8 SE 1016,2 4,1 0,0
26.01.2020 05:00:00 1,8 1,8 1,7 9 5 14 8 SSE 1016,6 1,1 0,0
26.01.2020 04:00:00 1,6 1,6 1,6 9 5 14 8 SE 1017,0 0,5 0,0
26.01.2020 03:00:00 1,9 1,8 1,9 8 4 14 8 SE 1017,6 0,6 0,0
26.01.2020 02:00:00 1,7 1,7 1,7 9 5 18 10 SE 1017,9 0,4 0,0
26.01.2020 01:00:00 1,5 1,5 1,5 11 6 18 10 ESE 1019,0 0,4 0,0
26.01.2020 00:00:00 1,4 1,3 1,5 11 6 18 10 SE 1019,1 0,4 0,0
25.01.2020 23:00:00 1,6 1,6 1,7 9 5 14 8 ESE 1019,6 0,4 0,0
25.01.2020 22:00:00 1,6 1,6 1,6 9 5 14 8 ESE 1020,0 0,4 0,0
25.01.2020 21:00:00 1,6 1,6 1,7 8 4 18 10 ESE 1020,3 0,4 0,0
25.01.2020 20:00:00 1,4 1,3 1,4 9 5 14 8 SE 1020,5 1,0 0,0
25.01.2020 19:00:00 1,4 1,0 1,5 9 5 18 10 SSE 1020,8 2,6 0,0
25.01.2020 18:00:00 1,9 1,3 1,9 9 5 14 8 SE 1020,6 4,2 0,0
25.01.2020 17:00:00 2,1 1,4 2,2 9 5 14 8 SSE 1020,3 3,4 0,0
25.01.2020 16:00:00 2,2 1,2 2,4 9 5 14 8 SSE 1020,7 4,7 0,0
25.01.2020 15:00:00 2,2 1,0 2,6 9 5 14 8 SSE 1021,1 3,8 0,0
25.01.2020 14:00:00 1,9 0,7 2,5 11 6 14 8 S 1021,7 4,1 0,0
25.01.2020 13:00:00 1,2 0,4 1,7 7 4 14 8 SSE 1022,1 3,1 0,0
25.01.2020 12:00:00 0,7 0,3 1,1 11 6 18 10 SSE 1022,8 2,6 0,0
25.01.2020 11:00:00 0,7 0,2 1,0 11 6 18 10 SSE 1022,8 2,4 0,0
25.01.2020 10:00:00 0,8 0,2 1,0 11 6 14 8 SSE 1022,4 3,9 0,0
25.01.2020 09:00:00 0,9 0,3 0,9 11 6 14 8 SSE 1022,3 5 0,0
25.01.2020 08:00:00 1,0 0,5 0,9 9 5 18 10 SSE 1022,2 4,5 0,0
25.01.2020 07:00:00 1,0 0,9 1,0 9 5 14 8 S 1022,1 2,0 0,0
25.01.2020 06:00:00 1,1 1,0 1,1 9 5 11 6 S 1021,8 2,2 0,0
25.01.2020 05:00:00 1,2 1,2 1,3 9 5 11 6 S 1022,0 1,9 0,0
25.01.2020 04:00:00 1,2 1,1 1,2 9 5 11 6 S 1022,2 2,5 0,0
25.01.2020 03:00:00 1,2 1,2 1,3 9 5 11 6 SSW 1022,7 2,4 0,0
25.01.2020 02:00:00 1,4 1,2 1,4 9 5 14 8 S 1022,7 2,5 0,0
25.01.2020 01:00:00 1,5 1,3 1,5 11 6 18 10 S 1022,9 2,7 0,0
25.01.2020 00:00:00 1,5 1,1 1,5 13 7 18 10 S 1023,2 2,7 0,0
24.01.2020 23:00:00 1,6 1,3 1,5 11 6 14 8 S 1023,2 2,9 0,0
24.01.2020 22:00:00 1,6 1,3 1,5 11 6 18 10 S 1023,5 2,9 0,0
24.01.2020 21:00:00 1,6 1,3 1,6 8 4 11 6 S 1023,6 2,7 0,0
24.01.2020 20:00:00 1,7 1,1 1,7 8 4 14 8 S 1023,6 3,1 0,0
24.01.2020 19:00:00 1,9 1,2 1,8 8 4 11 6 S 1023,5 4,5 0,0
24.01.2020 18:00:00 1,9 1,3 1,9 9 5 14 8 S 1023,0 4,7 0,0
24.01.2020 17:00:00 2,1 1,2 2,1 5 3 22 12 SSW 1022,7 4,4 0,0
24.01.2020 16:00:00 2,0 1,5 2,1 15 8 22 12 S 1022,5 3,8 0,0
24.01.2020 15:00:00 2,1 1,6 2,3 9 5 18 10 S 1023,3 4,6 0,0
24.01.2020 14:00:00 2,2 1,8 2,5 13 7 - - S 1023,8 4,8 -
24.01.2020 13:00:00 2,2 1,5 2,4 9 5 14 8 S 1024,1 3,9 0,0
24.01.2020 12:00:00 1,8 1,1 2,1 4 2 7 4 - 1024,7 3,3 0,0
24.01.2020 11:00:00 1,4 1,3 1,7 2 1 11 6 - 1024,8 4,5 0,0
24.01.2020 10:00:00 1,1 1,0 1,2 4 2 18 10 - 1024,5 4,4 0,0
24.01.2020 09:00:00 0,9 0,8 1,0 11 6 14 8 SSW 1024,3 1,2 0,0
24.01.2020 08:00:00 1,0 0,9 1,0 5 3 14 8 SW 1024,1 1,9 0,0
24.01.2020 07:00:00 1,0 0,9 1,1 8 4 14 8 SSW 1024,1 1,9 0,0
24.01.2020 06:00:00 1,2 1,1 1,3 8 4 14 8 SW 1024,1 1,4 0,0
24.01.2020 05:00:00 1,4 1,4 1,5 5 3 11 6 W 1024,4 1,7 0,0
24.01.2020 04:00:00 1,5 1,4 1,6 4 2 11 6 - 1025,0 1,3 0,0
24.01.2020 03:00:00 1,7 1,6 1,7 4 2 11 6 - 1025,4 0,5 0,0
24.01.2020 02:00:00 1,6 1,5 1,7 8 4 11 6 S 1025,9 1,0 0,0
24.01.2020 01:00:00 2,0 1,9 2,1 8 4 14 8 S 1026,3 1,6 0,0
24.01.2020 00:00:00 2,4 1,9 2,3 9 5 14 8 SSE 1026,5 2,3 0,0
23.01.2020 23:00:00 2,7 2,0 2,7 9 5 14 8 E 1027,1 3,0 0,0
23.01.2020 22:00:00 2,9 1,9 2,9 9 5 14 8 ESE 1027,2 4,6 0,0
23.01.2020 21:00:00 3,3 2,0 3,3 8 4 14 8 E 1027,4 7 0,0
23.01.2020 20:00:00 3,5 1,8 3,4 9 5 14 8 ENE 1028,0 9 0,0
23.01.2020 19:00:00 3,6 1,3 3,5 8 4 14 8 ESE 1028,2 10 0,0
23.01.2020 18:00:00 4,0 1,2 3,7 8 4 18 10 ESE 1028,5 10 0,0
23.01.2020 17:00:00 4,5 1,6 4,4 9 5 18 10 E 1028,8 10 0,0
23.01.2020 16:00:00 5,1 2,0 5,1 11 6 18 10 E 1029,4 10 0,0
23.01.2020 15:00:00 5,6 2,0 5,8 8 4 18 10 E 1030,1 10 0,0
23.01.2020 14:00:00 6,2 2,6 7,1 11 6 22 12 ENE 1030,9 10 0,0
23.01.2020 13:00:00 5,4 2,6 6,0 11 6 18 10 E 1031,7 9 0,0
23.01.2020 12:00:00 4,7 3,3 4,9 5 3 18 10 E 1032,7 6 0,0
23.01.2020 11:00:00 4,2 3,1 4,4 8 4 14 8 E 1033,4 4,9 0,0
23.01.2020 10:00:00 4,0 3,4 3,9 8 4 11 6 ESE 1033,5 4,2 0,0
23.01.2020 09:00:00 3,9 3,8 3,7 8 4 11 6 ESE 1033,8 4,0 0,0
23.01.2020 08:00:00 4,3 4,3 4,2 4 2 7 4 ESE 1033,7 1,0 0,0
23.01.2020 07:00:00 4,5 4,4 4,4 5 3 11 6 E 1033,8 0,3 0,0
23.01.2020 06:00:00 4,3 4,2 4,2 2 1 7 4 E 1034,1 0,9 0,0
23.01.2020 05:00:00 3,9 3,9 3,9 2 1 4 2 E 1034,6 1,4 0,0
23.01.2020 04:00:00 3,5 3,5 3,5 2 1 7 4 ESE 1035,1 1,8 0,0
23.01.2020 03:00:00 3,2 3,1 3,1 2 1 4 2 SSE 1035,7 0,3 0,0
23.01.2020 02:00:00 2,5 2,5 2,3 4 2 7 4 - 1035,9 0,1 0,0
23.01.2020 01:00:00 2,5 2,4 1,5 4 2 7 4 SW 1036,4 0,1 0,0
23.01.2020 00:00:00 3,6 3,4 2,5 2 1 4 2 - 1036,8 0,6 0,0
22.01.2020 23:00:00 4,7 4,7 4,5 4 2 7 4 W 1036,7 1,3 0,0
22.01.2020 22:00:00 4,8 4,8 4,7 4 2 7 4 SSW 1036,9 0,9 0,0
22.01.2020 21:00:00 4,8 4,7 4,7 5 3 7 4 SW 1036,8 0,5 0,0
22.01.2020 20:00:00 4,8 4,7 4,7 2 1 4 2 WNW 1037,0 0,4 0,0
22.01.2020 19:00:00 4,8 4,8 4,7 2 1 4 2 SW 1036,8 0,8 0,0
22.01.2020 18:00:00 4,8 4,8 4,7 2 1 4 2 SW 1036,5 1,2 0,0
22.01.2020 17:00:00 4,8 4,8 4,8 2 1 7 4 SW 1036,3 0,9 0,0
22.01.2020 16:00:00 4,7 4,6 4,7 5 3 11 6 W 1036,4 0,9 0,0
22.01.2020 15:00:00 4,4 4,3 4,5 5 3 11 6 WSW 1036,4 1,7 0,0
22.01.2020 14:00:00 4,1 3,9 4,5 5 3 11 6 WSW 1036,5 1,2 0,0
22.01.2020 13:00:00 3,5 3,4 3,9 5 3 11 6 WSW 1036,9 0,9 0,0
22.01.2020 12:00:00 2,8 2,4 3,2 5 3 11 6 WSW 1037,5 2,3 0,0
22.01.2020 11:00:00 2,1 1,9 2,3 8 4 11 6 SW 1037,7 2,4 0,0
22.01.2020 10:00:00 1,4 1,3 1,4 8 4 14 8 SSW 1037,3 2,3 0,0
22.01.2020 09:00:00 1,1 1,0 1,1 4 2 11 6 - 1037,6 1,7 0,0
22.01.2020 08:00:00 0,8 0,7 0,8 5 3 11 6 SSW 1037,0 1,8 0,0
22.01.2020 07:00:00 0,5 0,5 0,6 8 4 14 8 SSW 1036,8 1,1 0,0

tt = temperature
td = dewpoint
tt 5cm = temperature 5cm
ff = wind speed
fx = gusts
dd = wind direction
ppp = reduced air pressure
vv = visibility
rr = precipitation

Next stations